FENGYUN 1C DEB, 38494

Orbit data source: Space-Track

FENGYUN 1C DEB, 38494 is space debris in SSO originally from a launch on Mon, 10 May 1999 UTC launched from the Taiyaun Space Center, China (TSC). Fengyun 1C debris stems from the Chinese weather satellite Fengyun-1C, which was intentionally destroyed by a Chinese anti-satellite missile in 2007. This event dramatically increased the amount of space debris, with thousands of trackable fragments posing hazards to satellites and human spaceflight. The Fengyun 1C debris cloud has become a focal point in discussions about space sustainability and the need for international regulations to prevent the creation of new debris.

Loading next visibility...
Identifier
38494, 1999-025ESD
Orbit
SSO
Country
Flag of CNCN / PRC
Related business
Manufacturer
Unknown
Mission
Spacecraft
Bus & Motor
Unknown
Mass
Unknown
Launch date (UTC)
1999-05-10 (27 years ago)
Launch vehicle
Unknown
Launch site
Taiyaun Space Center, China (TSC)
Object type
Payload
Rocket body
Debris
Shape & HBR
Unknown shape, 0.1 m
Radar Cross Section
Small (<0.1 m²)

Expand to show TLE details & history
Last TLE update: 2 weeks ago

TLE from 2 weeks ago
0 FENGYUN 1C DEB
1 38494U 99025ESD 26083.55978734  .00008703  00000-0  30205-2 0  9990
2 38494  98.4450  31.3471 0380622  81.3758 283.0330 14.02038549 85808
Epoch: 2026-03-24T13:26Z
TLE epoch observation values (Epoch: 2026-03-24T13:26:05.626Z)
Latitude
0.00003°
Longitude
7.78796°
Altitude
837.389 km
Speed
7.461 km/s
True Right ascension
02h 05m 23s
True Declination
0° 00' 00"
Sunlit
Object was in daylight at epoch
Visualization orbit readout
Latitude
Unknown
Longitude
Unknown
Altitude
Unknown
Speed
Unknown
Apparent Right ascension
Unknown
Apparent Declination
Unknown
Sunlit
N/A
Visualization observer readout
Local Sidereal Time
23:15:03
Azimuth
Unknown
Elevation
Unknown
Doppler factor
Unknown
Orbital elements
Apogee altitude
1,160.318 km
Perigee altitude
607.499 km
Semi-major axis
7,262.046 km
Eccentricity
0.03806
Inclination
98.445°
RAAN
31.3471°
Arg. of periapsis
81.3758°
True anomaly
278.7417°
Mean anomaly
283.033°
Eccentric anomaly
280.89148°
Mean motion
3.50715 °/min
Orbital period
102.65 mins
BSTAR
0.0030205
Loading maneuver chart data...
Computing Atmospheric mass density...

Documentation

Showing up to 5 results
|